Russell, KS

1:47 PM CDT on March 28, 2017 (GMT -0500)
Russell Municipal

Weather History for KRSL - January, 2013

Change the Weather History Date:

Monday, January 21, 2013

  Actual Average Record
Temperature  
Mean Temperature 26 °F -  
Max Temperature 39 °F 39 °F 65 °F (1964)
Min Temperature 14 °F 17 °F -8 °F (1966)
Degree Days  
Heating Degree Days 38    
Moisture  
Dew Point 14 °F    
Average Humidity 70    
Maximum Humidity 88    
Minimum Humidity 43    
Precipitation  
Precipitation 0.00 in - - ()
Sea Level Pressure  
Sea Level Pressure 30.37 in    
Wind  
Wind Speed 8 mph (SSW)    
Max Wind Speed 15 mph    
Max Gust Speed 18 mph    
Visibility 10 miles    
Events      
Averages and records for this station are not official NWS values.
T = Trace of Precipitation, MM = Missing Value Source: NWS Daily Summary

Daily Weather History Graph

Daily Weather History Graph

Search for Another Location

Airport or City:

Trip Planner

Search our weather history database for the weather conditions in past years. The results will help you decide how hot, cold, wet, or windy it might be!

Date:

Astronomy

Jan. 21, 2013 Rise Set
Actual Time 7:49 AM CST 5:44 PM CST
Civil Twilight 7:20 AM CST 6:13 PM CST
Nautical Twilight 6:48 AM CST 6:45 PM CST
Astronomical Twilight 6:16 AM CST 7:17 PM CST
Moon 1:25 PM CST (1/21) 3:18 AM CST (1/21)
Length of Visible Light 10h 52m
Length of Day
9h 55m
Waxing Gibbous, 75% of the Moon is Illuminated
Jan 21
Waxing Gibbous
Jan 26
Full
Feb 3
Last Quarter
Feb 10
New
Feb 17
First Quarter

Hourly Weather History & Observations

Time (CST) Temp. Windchill Dew Point Humidity Pressure Visibility Wind Dir Wind Speed Gust Speed Precip Events Conditions
12:53 AM 18.0 °F 9.8 °F 14.0 °F 84% 30.43 in 10.0 mi NE 5.8 mph - N/A   Clear
1:53 AM 19.0 °F 13.9 °F 14.0 °F 81% 30.44 in 10.0 mi North 3.5 mph - N/A   Clear
2:53 AM 18.0 °F - 14.0 °F 84% 30.44 in 10.0 mi Calm Calm - N/A   Clear
3:53 AM 14.0 °F 5.1 °F 10.9 °F 88% 30.44 in 10.0 mi SW 5.8 mph - N/A   Clear
4:53 AM 15.1 °F 5.2 °F 10.9 °F 84% 30.43 in 10.0 mi SW 6.9 mph - N/A   Clear
5:53 AM 15.1 °F 5.2 °F 10.9 °F 84% 30.43 in 10.0 mi WSW 6.9 mph - N/A   Clear
6:53 AM 14.0 °F 3.9 °F 10.9 °F 88% 30.44 in 10.0 mi WSW 6.9 mph - N/A   Clear
7:53 AM 15.1 °F 5.2 °F 10.9 °F 84% 30.44 in 10.0 mi WSW 6.9 mph - N/A   Clear
8:53 AM 19.9 °F 11.1 °F 15.1 °F 81% 30.44 in 10.0 mi WSW 6.9 mph - N/A   Clear
9:53 AM 23.0 °F 13.9 °F 17.1 °F 78% 30.45 in 10.0 mi WSW 8.1 mph - N/A   Clear
10:53 AM 28.0 °F 17.0 °F 17.1 °F 63% 30.43 in 10.0 mi SW 13.8 mph - N/A   Clear
11:53 AM 32.0 °F 23.6 °F 14.0 °F 48% 30.41 in 10.0 mi SSW 10.4 mph - N/A   Clear
12:53 PM 34.0 °F 26.0 °F 16.0 °F 48% 30.36 in 10.0 mi SSW 10.4 mph 17.3 mph N/A   Clear
1:53 PM 36.0 °F 27.1 °F 18.0 °F 48% 30.32 in 10.0 mi SSW 13.8 mph 18.4 mph N/A   Clear
2:53 PM 37.9 °F 29.2 °F 18.0 °F 45% 30.28 in 10.0 mi SSW 15.0 mph - N/A   Clear
3:53 PM 39.0 °F 34.0 °F 18.0 °F 43% 30.28 in 10.0 mi WSW 6.9 mph - N/A   Clear
4:53 PM 39.0 °F 34.0 °F 18.0 °F 43% 30.26 in 10.0 mi South 6.9 mph - N/A   Clear
5:53 PM 30.9 °F 22.8 °F 18.0 °F 59% 30.26 in 10.0 mi SE 9.2 mph - N/A   Clear
6:53 PM 30.0 °F 21.7 °F 17.1 °F 59% 30.27 in 10.0 mi ESE 9.2 mph - N/A   Clear
7:53 PM 23.0 °F 11.7 °F 16.0 °F 74% 30.31 in 10.0 mi ENE 11.5 mph - N/A   Clear
8:53 PM 19.9 °F 6.7 °F 15.1 °F 81% 30.32 in 10.0 mi ENE 13.8 mph - N/A   Clear
9:53 PM 17.1 °F 2.5 °F 12.0 °F 81% 30.33 in 10.0 mi ENE 15.0 mph - N/A   Clear
10:53 PM 17.1 °F 3.0 °F 10.9 °F 77% 30.32 in 10.0 mi East 13.8 mph - N/A   Clear
11:53 PM 17.1 °F 3.6 °F 10.9 °F 77% 30.30 in 10.0 mi East 12.7 mph - N/A   Clear